User: anonymous   Login
Location: Azalea Creek
(37.1280°N, 119.2623°W)
Time: 05:16:07
(UTC+00:00)
Language:

STARLINK-25 - Orbit

View from above orbital plane
View from above orbital plane
View from above satellite
View from above satellite

Ground track
Ground track

The orbit data is extracted from the following two-line orbital elements,

1 44239C 19029E   20152.83894770  .01110788  00000-0  32533-1 0  1523
2 44239  53.0061 285.6638 0001266  95.3265  35.2206 15.33557275    14
Epoch (UTC): 31 May 2020 20:08:05
Eccentricity: 0.0001266
inclination: 53.0061°
perigee height: 464 km
apogee height: 466 km
right ascension of ascending node: 285.6638°
argument of perigee: 95.3265°
revolutions per day: 15.33557275
mean anomaly at epoch: 35.2206°
orbit number at epoch: 1

The dashed part of the orbit path shows where the satellite is in the earth's shadow,  

DLR